Le nostre stazioni meteo in Italia

Pubblicità
Il mio iltempo24.it
Capo Caccia, Italia (16522): Temperatura & dewpoint: 11.02.2019 14:00:00 - 17.02.2019 14:00:00 (CET)Capo Caccia, Italia (16522): velocità del vento: 11.02.2019 14:00:00 - 17.02.2019 14:00:00 (CET)Capo Caccia, Italia (16522): direzione del vento: 11.02.2019 14:00:00 - 17.02.2019 14:00:00 (CET)Capo Caccia, Italia (16522): reduced air pressure: 11.02.2019 14:00:00 - 17.02.2019 14:00:00 (CET)Capo Caccia, Italia (16522): visibility: 11.02.2019 14:00:00 - 17.02.2019 14:00:00 (CET)Capo Caccia, Italia (16522): ore di luce: 11.02.2019 14:00:00 - 17.02.2019 14:00:00 (CET)
Data & Tempo tt [°C] td [°C] ff [km/h] ff [kn] dd ppp [hPa] vv [km] sd [min]
17.02.2019 14:00:00 - - - - - - - -
17.02.2019 13:00:00 14,2 10,2 4 2 NO 1029,5 20 60
17.02.2019 12:00:00 13,6 9,5 2 1 NO 1029,6 20 60
17.02.2019 11:00:00 12,0 8,3 5 3 NE 1029,7 20 60
17.02.2019 10:00:00 10,4 8,7 8 4 ENE 1029,9 20 60
17.02.2019 09:00:00 10,0 9,2 8 4 E 1029,9 20 60
17.02.2019 08:00:00 9,8 9,2 5 3 E 1029,9 20 24
17.02.2019 07:00:00 10,0 9,2 8 4 SSE 1029,9 20 0
17.02.2019 06:00:00 9,8 9,0 5 3 S 1029,8 20 -
17.02.2019 05:00:00 10,0 9,2 5 3 S 1029,9 20 -
17.02.2019 04:00:00 10,0 9,2 5 3 S 1029,9 20 -
17.02.2019 03:00:00 10,6 9,8 5 3 SSE 1030,0 20 -
17.02.2019 02:00:00 10,6 9,8 5 3 S 1030,0 20 -
17.02.2019 01:00:00 10,8 9,9 9 5 S 1030,0 20 -
17.02.2019 00:00:00 10,6 10,0 8 4 S 1030,0 20 -
16.02.2019 23:00:00 10,8 10,2 5 3 S 1030,2 20 -
16.02.2019 22:00:00 11,0 11,0 0 0 N 1030,1 20 -
16.02.2019 21:00:00 11,6 11,3 0 0 N 1029,9 20 -
16.02.2019 20:00:00 12,0 11,5 0 0 N 1029,8 20 -
16.02.2019 19:00:00 12,4 11,6 0 0 N 1029,7 20 0
16.02.2019 18:00:00 13,2 12,1 8 4 SSO 1029,6 20 60
16.02.2019 17:00:00 13,8 12,0 5 3 E 1029,6 20 60
16.02.2019 16:00:00 14,0 11,0 8 4 S 1029,6 20 60
16.02.2019 15:00:00 14,8 10,6 8 4 SSO 1029,7 30 60
16.02.2019 14:00:00 15,0 9,2 9 5 S 1030,5 20 60
16.02.2019 13:00:00 15,0 7,6 9 5 S 1030,5 20 60
16.02.2019 12:00:00 14,6 5,7 5 3 SSO 1030,3 30 60
16.02.2019 11:00:00 13,6 5,5 8 4 S 1029,9 20 60
16.02.2019 10:00:00 13,0 5,7 9 5 ESE 1029,2 20 60
16.02.2019 09:00:00 11,2 4,4 24 13 ENE 1029,3 20 60
16.02.2019 08:00:00 9,2 5,0 26 14 ENE 1029,0 30 60
16.02.2019 07:00:00 9,4 5,8 18 10 ENE 1028,9 20 0
16.02.2019 06:00:00 10,0 6,0 24 13 ENE 1028,1 20 -
16.02.2019 05:00:00 9,8 7,0 21 11 NE 1028,0 20 -
16.02.2019 04:00:00 9,8 7,2 21 11 NE 1028,1 20 -
16.02.2019 03:00:00 10,0 8,3 18 10 NNE 1028,1 20 -
16.02.2019 02:00:00 9,8 8,2 22 12 NNE 1028,1 20 -
16.02.2019 01:00:00 9,8 8,7 21 11 NNE 1028,1 20 -
16.02.2019 00:00:00 10,0 9,1 16 9 NE 1028,1 20 -
15.02.2019 23:00:00 10,2 9,6 21 11 NNE 1029,1 20 -
15.02.2019 22:00:00 9,8 9,0 18 10 NNE 1028,3 20 -
15.02.2019 21:00:00 10,0 9,2 18 10 NE 1028,0 20 -
15.02.2019 20:00:00 10,2 9,4 29 16 NNE 1028,0 20 -
15.02.2019 19:00:00 10,4 10,4 18 10 NNE 1027,9 20 0
15.02.2019 18:00:00 11,6 10,8 15 8 N 1027,6 20 60
15.02.2019 17:00:00 13,2 11,1 15 8 N 1027,6 20 60
15.02.2019 16:00:00 14,0 10,6 15 8 NNO 1027,6 20 60
15.02.2019 15:00:00 14,0 11,5 13 7 NNO 1028,5 20 60
15.02.2019 14:00:00 13,6 12,3 11 6 N 1028,8 20 60
15.02.2019 13:00:00 14,0 11,2 9 5 NNO 1029,6 20 60
15.02.2019 12:00:00 14,0 10,2 11 6 NNE 1030,4 20 60
15.02.2019 11:00:00 12,6 9,8 13 7 NE 1030,6 20 60
15.02.2019 10:00:00 11,2 8,8 9 5 NE 1030,9 20 60
15.02.2019 09:00:00 10,0 8,4 13 7 NNE 1030,9 20 60
15.02.2019 08:00:00 8,6 7,4 9 5 N 1031,1 20 6
15.02.2019 07:00:00 8,6 7,8 13 7 NNE 1031,2 20 0
15.02.2019 06:00:00 8,8 6,8 16 9 NE 1031,2 20 -
15.02.2019 05:00:00 9,0 7,0 11 6 NE 1031,2 20 -
15.02.2019 04:00:00 9,0 5,6 13 7 NNE 1031,5 20 -
15.02.2019 03:00:00 9,2 6,5 21 11 NE 1031,9 20 -
15.02.2019 02:00:00 9,0 5,4 11 6 NE 1032,1 20 -
15.02.2019 01:00:00 9,0 7,3 13 7 NE 1032,5 20 -
15.02.2019 00:00:00 9,2 9,0 16 9 NE 1032,4 20 -
14.02.2019 23:00:00 10,0 10,0 13 7 NE 1032,5 20 -
14.02.2019 22:00:00 10,2 8,1 9 5 NE 1032,6 20 -
14.02.2019 21:00:00 10,2 5,6 13 7 NE 1032,6 20 -
14.02.2019 20:00:00 10,8 4,5 13 7 ENE 1032,5 20 -
14.02.2019 19:00:00 11,4 6,1 16 9 NE 1032,5 20 0
14.02.2019 18:00:00 12,8 5,9 11 6 ENE 1032,3 20 30
14.02.2019 17:00:00 13,6 9,5 15 8 N 1032,6 20 60
14.02.2019 16:00:00 14,0 10,2 11 6 N 1032,7 20 60
14.02.2019 15:00:00 14,6 12,1 9 5 N 1033,1 20 -
14.02.2019 14:00:00 16,0 7,2 13 7 NNE 1033,5 20 60
14.02.2019 13:00:00 15,4 7,7 16 9 NE 1034,1 20 60
14.02.2019 12:00:00 14,4 8,4 22 12 NE 1034,4 20 60
14.02.2019 11:00:00 12,4 8,5 21 11 NE 1034,2 20 60
14.02.2019 10:00:00 12,0 9,9 18 10 NNE 1034,2 20 60
14.02.2019 09:00:00 9,4 6,1 22 12 NE 1034,4 20 60
14.02.2019 08:00:00 8,8 7,2 24 13 NE 1034,1 20 6
14.02.2019 07:00:00 8,8 5,5 24 13 NNE 1033,9 15 -
14.02.2019 06:00:00 8,8 5,5 21 11 NE 1034,0 15 -
14.02.2019 05:00:00 8,8 5,2 21 11 NE 1034,0 15 -
14.02.2019 04:00:00 9,0 2,8 13 7 NE 1034,1 15 -
14.02.2019 03:00:00 9,0 2,8 18 10 NE 1034,1 15 -
14.02.2019 02:00:00 8,6 8,3 18 10 NE 1034,3 15 -
14.02.2019 01:00:00 8,8 8,5 21 11 NE 1034,3 15 -
14.02.2019 00:00:00 9,2 8,4 16 9 NE 1034,3 15 -
13.02.2019 23:00:00 9,4 9,0 16 9 N 1034,1 15 -
13.02.2019 22:00:00 9,6 9,1 15 8 NNE 1034,0 10 -
13.02.2019 21:00:00 9,6 8,8 18 10 NNE 1033,9 15 -
13.02.2019 20:00:00 9,8 8,9 13 7 N 1033,7 15 -
13.02.2019 19:00:00 10,4 8,5 15 8 NNO 1032,8 15 0
13.02.2019 18:00:00 11,6 7,5 16 9 NNO 1032,7 20 12
13.02.2019 17:00:00 12,4 8,1 18 10 NNO 1032,7 20 60
13.02.2019 16:00:00 13,0 8,9 16 9 ONO 1032,6 20 60
13.02.2019 15:00:00 14,0 10,0 13 7 ONO 1032,5 20 60
13.02.2019 14:00:00 14,0 9,8 0 0 N 1032,6 20 60
13.02.2019 13:00:00 13,2 9,8 0 0 N 1032,8 20 60
13.02.2019 12:00:00 12,8 9,8 0 0 N 1032,8 20 60
13.02.2019 11:00:00 12,8 10,0 8 4 S 1032,7 20 60
13.02.2019 10:00:00 12,0 9,5 8 4 S 1032,0 20 -
13.02.2019 09:00:00 10,0 8,4 9 5 S 1032,2 20 0
13.02.2019 08:00:00 9,2 8,9 5 3 S 1031,8 20 0
13.02.2019 07:00:00 9,0 7,9 5 3 S 1031,0 20 0
13.02.2019 06:00:00 9,0 8,2 4 2 S 1030,5 20 -
13.02.2019 05:00:00 9,2 9,2 4 2 ESE 1030,1 20 -
13.02.2019 04:00:00 10,2 8,6 2 1 SSO 1030,0 20 -
13.02.2019 03:00:00 10,2 8,1 8 4 O 1029,9 20 -
13.02.2019 02:00:00 10,0 8,3 8 4 ONO 1029,7 20 -
13.02.2019 01:00:00 10,0 9,2 8 4 ONO 1029,7 20 -
13.02.2019 00:00:00 10,0 9,2 8 4 ONO 1029,7 20 -
12.02.2019 23:00:00 10,0 9,4 8 4 ONO 1029,7 20 -
12.02.2019 22:00:00 10,2 9,4 8 4 ONO 1029,1 20 -
12.02.2019 21:00:00 11,0 9,9 8 4 NNO 1028,8 20 -
12.02.2019 20:00:00 11,0 9,2 15 8 ONO 1028,7 20 -
12.02.2019 19:00:00 11,0 8,6 11 6 ONO 1028,0 30 0
12.02.2019 18:00:00 12,6 9,6 15 8 ONO 1027,2 30 60
12.02.2019 17:00:00 13,0 9,2 16 9 ONO 1026,7 30 60
12.02.2019 16:00:00 13,8 8,4 18 10 SO 1027,1 30 60
12.02.2019 15:00:00 13,8 6,9 16 9 NNO 1026,9 30 60
12.02.2019 14:00:00 15,0 0,8 9 5 N 1026,5 20 60
12.02.2019 13:00:00 14,8 0,6 26 14 NNE 1027,4 20 60
12.02.2019 12:00:00 14,4 1,0 21 11 N 1027,6 20 60
12.02.2019 11:00:00 13,6 0,6 26 14 N 1027,1 20 60
12.02.2019 10:00:00 12,8 -0,5 37 20 N 1026,2 20 60
12.02.2019 09:00:00 12,2 -1,7 37 20 N 1025,7 20 60
12.02.2019 08:00:00 12,0 6,3 34 18 NNO 1024,6 20 0
12.02.2019 07:00:00 11,0 7,7 24 13 NNO 1023,8 20 0
12.02.2019 06:00:00 11,0 9,1 26 14 NO 1023,7 20 -
12.02.2019 05:00:00 11,0 7,9 28 15 NNO 1023,6 20 -
12.02.2019 04:00:00 11,2 7,9 24 13 NNO 1023,1 20 -
12.02.2019 03:00:00 10,6 6,2 28 15 NNO 1022,9 20 -
12.02.2019 02:00:00 10,6 6,2 31 17 NNO 1022,7 20 -
12.02.2019 01:00:00 10,8 5,8 35 19 NNO 1022,2 20 -
12.02.2019 00:00:00 10,8 6,0 28 15 NNO 1022,0 20 -
11.02.2019 23:00:00 10,8 4,5 35 19 NNO 1021,7 20 -
11.02.2019 22:00:00 10,8 5,1 41 22 NNO 1020,8 20 -
11.02.2019 21:00:00 10,8 4,7 48 26 ONO 1020,7 20 -
11.02.2019 20:00:00 11,0 4,5 48 26 NNO 1020,5 20 -
11.02.2019 19:00:00 11,0 4,7 50 27 ONO 1019,9 20 0
11.02.2019 18:00:00 10,6 5,8 50 27 NO 1019,6 20 0
11.02.2019 17:00:00 11,4 6,1 63 34 NO 1018,8 20 60
11.02.2019 16:00:00 11,2 5,9 55 30 NNO 1018,3 20 60
11.02.2019 15:00:00 11,6 5,9 54 29 NNO 1018,0 20 60
11.02.2019 14:00:00 11,6 6,3 52 28 ONO 1018,0 20 60

tt = Temperatura
td = dewpoint
ff = velocità del vento
dd = direzione del vento
ppp = reduced air pressure
vv = visibility
sd = ore di luce

Stazioni seguenti

WeatherPro
AMSI
MeteoEarth